This is the latest recevied weather packets stored in our database for station/object AB4KY. If no packets are shown the sender has not sent any weather packets the latest 10 day(s).
| Time | Temp. | Humidity | Pressure | Rain* | Wind** | Luminosity | Snow |
|---|---|---|---|---|---|---|---|
| 1777523720 | 11.11° C | 84% | 1013.1 hPa | 0 mm | - | 0 W/m² | - |
| 1777523417 | 11.11° C | 82% | 1013.1 hPa | 0 mm | - | 0 W/m² | - |
| 1777523114 | 11.11° C | 83% | 1013 hPa | 0 mm | - | 0 W/m² | - |
| 1777522804 | 11.11° C | 82% | 1013.2 hPa | 0 mm | - | 0 W/m² | - |
| 1777522501 | 11.11° C | 81% | 1013.1 hPa | 0 mm | - | 0 W/m² | - |
| 1777522199 | 11.11° C | 83% | 1012.9 hPa | 0 mm | - | 0 W/m² | - |
| 1777521895 | 11.11° C | 82% | 1013.1 hPa | 0 mm | - | 0 W/m² | - |
| 1777521591 | 11.67° C | 81% | 1013.1 hPa | 0 mm | - | 0 W/m² | - |
| 1777521290 | 11.67° C | 78% | 1013 hPa | 0 mm | - | 0 W/m² | - |
| 1777520986 | 12.22° C | 78% | 1013 hPa | 0 mm | - | 0 W/m² | - |
| 1777520683 | 12.22° C | 75% | 1012.9 hPa | 0 mm | - | 0 W/m² | - |
| 1777520380 | 12.22° C | 75% | 1012.8 hPa | 0 mm | - | 0 W/m² | - |
| 1777520077 | 12.22° C | 77% | 1012.7 hPa | 0 mm | - | 0 W/m² | - |
| 1777519774 | 12.22° C | 76% | 1012.7 hPa | 0 mm | - | 0 W/m² | - |
| 1777519471 | 12.22° C | 75% | 1012.7 hPa | 0 mm | - | 0 W/m² | - |
| 1777519167 | 12.22° C | 76% | 1012.7 hPa | 0 mm | - | 0 W/m² | - |
| 1777518863 | 12.22° C | 80% | 1012.8 hPa | 0 mm | - | 0 W/m² | - |
| 1777518559 | 12.22° C | 81% | 1012.9 hPa | 0 mm | - | 0 W/m² | - |
| 1777518255 | 12.78° C | 82% | 1012.6 hPa | 0 mm | - | 0 W/m² | - |
| 1777517952 | 12.78° C | 77% | 1012.8 hPa | 0 mm | - | 0 W/m² | - |
| 1777517649 | 12.78° C | 77% | 1012.4 hPa | 0 mm | - | 0 W/m² | - |
| 1777517345 | 12.78° C | 77% | 1012.4 hPa | 0 mm | - | 0 W/m² | - |
| 1777517044 | 12.78° C | 77% | 1012.4 hPa | 0 mm | - | 0 W/m² | - |
| 1777516741 | 12.78° C | 78% | 1012.2 hPa | 0 mm | - | 0 W/m² | - |
| 1777516437 | 12.78° C | 77% | 1012.4 hPa | 0 mm | - | 0 W/m² | - |
* Rain latest hour (hover to see other rain measurements)
** Current wind speed in m/s (hover to see current wind gust speed)